Tracking 29068 objects as of 19-Jul-2024
HD Live streaming from Space Station
objects crossing your sky now

STARLINK-1956

Track STARLINK-1956 now!
10-day predictions
STARLINK-1956 is classified as:


NORAD ID: 47557
Int'l Code: 2021-009K
Perigee: 553.5 km
Apogee: 555.2 km
Inclination: 53.1 °
Period: 95.6 minutes
Semi major axis: 6925 km
RCS: Unknown
Launch date: February 4, 2021
Source: United States (US)
Launch site: AIR FORCE EASTERN TEST RANGE (AFETR)
Your satellite tracking list
Your tracking list is empty




NASA's NSSDC Master Catalog

Two Line Element Set (TLE):
1 47557U 21009K   24201.28580190  .00000825  00000-0  74295-4 0  9998
2 47557  53.0549 207.9574 0001216  89.4445 270.6683 15.06398954190927
Source of the keplerian elements: AFSPC